Regional Weather Roundup
Issued by NWS Charleston, SC

Current Version | Previous Version | Graphics & Text | Print | Product List | Glossary On
Versions: 1 2 3 4 5 6 7 8 9 10 11 12 13 14 15 16 17 18 19 20 21 22 23 24 25 26 27 28 29 30 31 32 33 34 35 36 37 38 39 40 41 42 43 44 45 46 47 48 49 50
000
ASUS42 KCHS 250225
RWRCHS

REGIONAL WEATHER ROUNDUP
NATIONAL WEATHER SERVICE CHARLESTON SC
900 PM EST WED DEC 24 2014

NOTE: "FAIR" INDICATES FEW OR NO CLOUDS BELOW 12,000 FEET WITH NO
SIGNIFICANT WEATHER AND/OR OBSTRUCTIONS TO VISIBILITY.

NOT ALL STATIONS ARE QUALITY CONTROLLED BY THE NATIONAL
WEATHER SERVICE. USE DATA WITH CAUTION...ESPECIALLY
DEWPOINT OBSERVATIONS.

SCZ027-030-031-034>040-042>050-250300-
...SOUTHEAST SOUTH CAROLINA...

CITY           SKY/WX    TMP DP  RH WIND       PRES   REMARKS
N CHARLESTON   CLOUDY    63  62  97 SW9       29.77S
WATERFRONT PRK   N/A     63 N/A N/A SW13        N/A
MOUNT PLEASANT MOCLDY    64  64 100 S10G16    29.77F
PINOPOLIS        N/A     66  64  94 S5        29.66F
MONCKS CORNER  CLOUDY    66  63  88 S7        29.75R
SUMMERVILLE    NOT AVBL
BEAUFORT MCAS  LGT RAIN  64  63  96 S8        29.78S
BEAUFORT ARPT  DRIZZLE   63  63 100 S6        29.79R
HILTON HEAD IS MOCLDY    64  64 100 S8        29.80F
WALTERBORO     CLOUDY    64 N/A N/A SW10      29.78R
ALLENDALE      CLOUDY    66  66 100 VRB5      29.75S

...SOUTHERN MIDLANDS AND PEE DEE...

CITY           SKY/WX    TMP DP  RH WIND       PRES   REMARKS
GEORGETOWN     NOT AVBL
KINGSTREE      NOT AVBL
ORANGEBURG     CLOUDY    65  63  93 SW10      29.74S
BARNWELL       CLOUDY    66  64  94 SW7       29.75S
AIKEN          MOCLDY    64  64 100 SW10      29.77R
MANNING        CLOUDY    64 N/A N/A S3        29.74F
COLUMBIA       CLOUDY    67  63  87 S8        29.72S
SUMTER         CLOUDY    64  63  94 S12       29.71S
FLORENCE       CLOUDY    66  63  90 SW10      29.72F
MYRTLE BEACH   DRIZZLE   63  61  94 S14       29.78R
N MYRTLE BEACH CLOUDY    62  60  93 S14       29.77R

$$

GAZ063-065-086>088-099>101-113>116-118-119-134>141-150-250300-
...SOUTHEAST GEORGIA...

CITY           SKY/WX    TMP DP  RH WIND       PRES   REMARKS
SAVANNAH ARPT  LGT RAIN  65  63  93 S9        29.80R
HUNTER AAF     LGT RAIN  66  66 100 SW8       29.77F
FORT STEWART   LGT RAIN  66  66 100 SW7       29.78F
STATESBORO     CLOUDY    66  66 100 SW8       29.78R
SYLVANIA       LGT RAIN  66  66 100 SW7       29.78R
CLAXTON        LGT RAIN  66  64  94 SW6       29.80R

...CSRA...CENTRAL AND FAR SOUTHEAST GEORGIA...

CITY           SKY/WX    TMP DP  RH WIND       PRES   REMARKS
THOMSON        CLOUDY    60  55  83 W13G18    29.85R
AUGUSTA-BUSH   LGT RAIN  66  63  90 SW7       29.73S
AUGUSTA-DANIEL CLOUDY    67  64  90 SW7       29.74R
SWAINSBORO     LGT RAIN  64  64 100 W13G18    29.80R
VIDALIA        CLOUDY    66  64  94 W15G28    29.82R
EASTMAN        CLOUDY    57  54  91 W9G20     29.90R
HAZLEHURST     LGT RAIN  65  62  92 NW6G17    29.85R
ALMA           CLOUDY    66  64  93 SW12      29.85R
WAYCROSS       RAIN      70  69  96 W10       29.85R
JESUP          CLOUDY    70  68  94 W3        29.83R
BAXLEY         RAIN      68  64  88 SW7       29.82R
BRUNSWICK      CLOUDY    68  64  88 SW10      29.83S
SAINT SIMONS   CLOUDY    63  62  97 SE5       29.81F FOG

$$

SCZ027-028-034-036>038-045-046-048>050-GAZ119-141-250300-
...LAKE AND SUPPLEMENTAL COASTAL OBSERVATIONS...

STATION/POSITION TIME  TEMP    WIND        PRES    WAVE   SWELL
                       AIR SEA DIR/SP/G            HT/PER HT/PER/DIR
                 (UTC) (F)     (DEG/KT/KT) (MB)    (FT/S) (FT/S/D)
UPR LAKE MARION  NOT AVBL
WINYAH BAY       0200   63     200/  7     1007.0F
LAKE MURRAY      0100   61     210/  8/ 10 1006.1R
ACE BASIN NERRS  NOT AVBL
FORT PULASKI     0200      56  200/  7/  9 1009.3R
SAPELO ISLAND    0200   65     200/  6     1009.0S

$$

ANZ835-935-AMZ111-154-330-350-352-354-370-450-454-472-250300-
...C-MAN AND BUOY OBSERVATIONS...

STATION/POSITION TIME  TEMP    WIND        PRES    WAVE   SWELL
                       AIR SEA DIR/SP/G            HT/PER HT/PER/DIR
                 (UTC) (F)     (DEG/KT/KT) (MB)    (FT/S) (FT/S/D)
BUOY 41004       0200   72 74  220/ 17/ 21 1008.0R   8/ 8   3/14
BUOY 41008       0200   63 59  220/ 12/ 12 1009.5R   5/ 7   3/150/ 7
FOLLY BEACH CMAN 0200   58     200/  8/  9 1009.0F
CAPERS NEARSHORE 0100   59     200/  8/ 10   N/A
FRIPP NEARSHORE  NOT AVBL


STATION/POSITION TIME  TEMP    WIND        PRES    WAVE   SWELL
                       AIR SEA DIR/SP/G            HT/PER HT/PER/DIR
                 (UTC) (F)     (DEG/KT/KT) (MB)    (FT/S) (FT/S/D)
5E ST. MARYS GA  0200      61                N/A     4/ 7
FRYING PAN BUOY  0200   74 71  180/ 19/ 23 1008.8F   7/ 8   3/320/13
BUOY 41025       0200   74                 1009.9F   9/ 8
CAPE LOOKOUT NC  0200   62     190/  7/  8 1009.0F
BUOY 41002       0147   74 71  200/ 16/ 21 1014.9F   6/ 7
BUOY 41010       0200   77 77  180/ 21/ 25 1013.3F   5/ 7   2/100/10
ST AUGUSTINE FL  0200   67     240/  6/  8 1012.1R


$$



USA.gov is the U.S. government's official web portal to all federal, state and local government web resources and services.